Back to catalog

STARLINK-36911

AliveCommunicationsVLEO
NORAD 68008·PAYLOAD·🇺🇸 United States

Launched Feb 27, 2026 from Vandenberg Space Force Base

Loading…

Next Passes (next 24 hours)

TLE

FreshSource: CelesTrak SupGP

Epoch: Sep 14, 2026, 14:23 UTC

1 68008C 26039Y   26257.59979167 -.00028812  00000+0 -10435-2 0  2571
2 68008  43.0030  62.0737 0001648 271.7714 123.4847 15.27595857    11

Track STARLINK-36911 in real time with AllMySat

Download on the App Store